This is the latest recevied weather packets stored in our database for station/object OE3PDB-4. If no packets are shown the sender has not sent any weather packets the latest 10 day(s).
| Time | Temp. | Humidity | Pressure | Rain* | Wind** | Luminosity | Snow |
|---|---|---|---|---|---|---|---|
| 1777593610 | 5° C | 52% | 1028 hPa | 0 mm | - | - | - |
| 1777593010 | 5.56° C | 52% | 1028 hPa | 0 mm | - | - | - |
| 1777592410 | 5.56° C | 52% | 1028.1 hPa | 0 mm | - | - | - |
| 1777591810 | 5.56° C | 51% | 1027.9 hPa | 0 mm | - | - | - |
| 1777591210 | 5.56° C | 51% | 1028 hPa | 0 mm | - | - | - |
| 1777590610 | 5.56° C | 51% | 1028.1 hPa | 0 mm | - | - | - |
| 1777590010 | 6.11° C | 50% | 1028.1 hPa | 0 mm | - | - | - |
| 1777589410 | 6.11° C | 50% | 1028.1 hPa | 0 mm | - | - | - |
| 1777588810 | 6.11° C | 49% | 1028 hPa | 0 mm | - | - | - |
| 1777588210 | 6.11° C | 49% | 1028 hPa | 0 mm | - | - | - |
| 1777587610 | 6.67° C | 48% | 1027.9 hPa | 0 mm | - | - | - |
| 1777587010 | 6.67° C | 47% | 1027.9 hPa | 0 mm | - | - | - |
| 1777586410 | 7.22° C | 46% | 1028 hPa | 0 mm | - | - | - |
| 1777585810 | 7.78° C | 46% | 1027.8 hPa | 0 mm | - | - | - |
| 1777585210 | 7.78° C | 45% | 1027.8 hPa | 0 mm | - | - | - |
| 1777584610 | 7.78° C | 45% | 1027.8 hPa | 0 mm | - | - | - |
| 1777584010 | 7.78° C | 44% | 1027.8 hPa | 0 mm | - | - | - |
| 1777583410 | 8.33° C | 43% | 1027.7 hPa | 0 mm | - | - | - |
| 1777582810 | 8.33° C | 43% | 1027.7 hPa | 0 mm | - | - | - |
| 1777582210 | 8.33° C | 42% | 1027.8 hPa | 0 mm | - | - | - |
| 1777581610 | 8.89° C | 41% | 1027.8 hPa | 0 mm | - | - | - |
| 1777581010 | 9.44° C | 40% | 1027.8 hPa | 0 mm | - | - | - |
| 1777580410 | 9.44° C | 40% | 1027.7 hPa | 0 mm | - | - | - |
| 1777579810 | 9.44° C | 39% | 1027.7 hPa | 0 mm | - | - | - |
| 1777579210 | 9.44° C | 39% | 1027.6 hPa | 0 mm | - | - | - |
* Rain latest hour (hover to see other rain measurements)
** Current wind speed in m/s (hover to see current wind gust speed)